"SCLK","SCET","ORBIT_NUMBER","ALTITUDE","LATITUDE_PLANEOGRAPHIC","LATITUDE_PLANETOCENTRIC","LOCAL_TRUE_SOLAR_TIME","WEST_LONGITUDE","X_SUN_DIR_DISTANCE","RHO_PRP_SUN_DISTANCE","SOLAR_ZENITH_ANGLE","ELECTRON_PLASMA_FREQUENCY","FPE_QUALITY","FPP_VERIFICATION","ELECTRON_PLASMA_DENSITY","ELECTRON_CYCLOTRON_PERIOD","FCP_QUALITY","B_MAGNITUDE"
"1/0364866971.53623",2014-11-23T23:56:15.738,13830,1567.00,44.56,44.29,"00:43:20",166.73,-1.150,0.900,141.84,1.02e+02,2,,1.29e+02,,,
"1/0364866979.23739",2014-11-23T23:56:23.282,13830,1557.00,44.84,44.57,"00:43:28",166.73,-1.140,0.900,141.71,1.03e+02,2,,1.32e+02,,,
"1/0364866986.59325",2014-11-23T23:56:30.825,13830,1546.00,45.12,44.85,"00:43:35",166.73,-1.140,0.900,141.57,1.04e+02,2,,1.34e+02,,,
"1/0364866994.29375",2014-11-23T23:56:38.368,13830,1535.00,45.40,45.13,"00:43:42",166.73,-1.130,0.900,141.42,1.02e+02,2,,1.29e+02,,,
"1/0364867001.64961",2014-11-23T23:56:45.911,13830,1524.00,45.69,45.42,"00:43:50",166.73,-1.130,0.900,141.28,1.04e+02,2,,1.34e+02,,,
"1/0364867009.35011",2014-11-23T23:56:53.454,13830,1513.00,45.97,45.70,"00:43:57",166.73,-1.120,0.900,141.13,1.03e+02,2,,1.32e+02,,,
"1/0364867017.05127",2014-11-23T23:57:00.998,13830,1503.00,46.26,45.99,"00:44:04",166.73,-1.120,0.900,140.99,1.08e+02,2,,1.45e+02,,,
"1/0364867024.40713",2014-11-23T23:57:08.541,13830,1492.00,46.55,46.28,"00:46:29",166.72,-1.120,0.900,140.84,1.08e+02,2,,1.45e+02,,,
"1/0364867032.10763",2014-11-23T23:57:16.084,13830,1481.00,46.84,46.57,"00:46:37",166.72,-1.110,0.910,140.69,1.07e+02,2,,1.42e+02,,,
"1/0364867039.46349",2014-11-23T23:57:23.627,13830,1471.00,47.13,46.86,"00:46:44",166.72,-1.110,0.910,140.53,1.13e+02,2,,1.58e+02,,,
"1/0364867047.16399",2014-11-23T23:57:31.170,13830,1460.00,47.42,47.15,"00:46:51",166.72,-1.100,0.910,140.38,1.13e+02,2,,1.58e+02,,,
"1/0364867054.52050",2014-11-23T23:57:38.714,13830,1449.00,47.71,47.44,"00:49:16",166.71,-1.100,0.910,140.22,1.10e+02,2,,1.50e+02,,,
"1/0364867062.22100",2014-11-23T23:57:46.257,13830,1439.00,48.01,47.74,"00:49:23",166.71,-1.090,0.910,140.06,1.07e+02,2,,1.42e+02,,,
"1/0364867069.57686",2014-11-23T23:57:53.800,13830,1428.00,48.30,48.03,"00:51:48",166.70,-1.090,0.910,139.90,1.09e+02,2,,1.47e+02,,,
"1/0364867077.27736",2014-11-23T23:58:01.343,13830,1418.00,48.60,48.33,"00:51:56",166.70,-1.080,0.910,139.73,1.05e+02,2,,1.37e+02,,,
"1/0364867084.63322",2014-11-23T23:58:08.886,13830,1407.00,48.90,48.63,"00:54:20",166.69,-1.080,0.910,139.57,1.08e+02,2,,1.45e+02,,,
"1/0364867092.33438",2014-11-23T23:58:16.430,13830,1397.00,49.20,48.93,"00:56:45",166.68,-1.070,0.910,139.40,1.16e+02,2,,1.67e+02,,,
"1/0364867100.03488",2014-11-23T23:58:23.973,13830,1386.00,49.50,49.23,"00:56:53",166.68,-1.070,0.910,139.23,1.14e+02,2,,1.61e+02,,,
"1/0364867107.39074",2014-11-23T23:58:31.516,13830,1376.00,49.80,49.53,"00:59:17",166.67,-1.060,0.920,139.06,1.16e+02,2,,1.67e+02,,,
"1/0364867115.09124",2014-11-23T23:58:39.059,13830,1365.00,50.11,49.83,"01:01:42",166.66,-1.060,0.920,138.89,1.09e+02,2,,1.47e+02,,,
"1/0364867122.44710",2014-11-23T23:58:46.602,13830,1355.00,50.41,50.14,"01:04:07",166.65,-1.050,0.920,138.71,1.17e+02,2,,1.70e+02,,,
"1/0364867130.14826",2014-11-23T23:58:54.146,13830,1345.00,50.72,50.44,"01:06:32",166.64,-1.050,0.920,138.53,1.17e+02,2,,1.70e+02,,,
"1/0364867137.50412",2014-11-23T23:59:01.689,13830,1334.00,51.02,50.75,"01:08:57",166.63,-1.040,0.920,138.35,1.15e+02,2,,1.64e+02,,,
"1/0364867145.20462",2014-11-23T23:59:09.232,13830,1324.00,51.33,51.06,"01:11:22",166.62,-1.030,0.920,138.17,1.14e+02,2,,1.61e+02,5.41e+00,1,6.61e+00
"1/0364867152.56048",2014-11-23T23:59:16.775,13830,1314.00,51.64,51.37,"01:13:47",166.61,-1.030,0.920,137.99,1.11e+02,2,,1.53e+02,5.32e+00,1,6.71e+00
"1/0364867160.26098",2014-11-23T23:59:24.318,13830,1304.00,51.95,51.68,"01:18:29",166.59,-1.020,0.920,137.80,1.07e+02,2,,1.42e+02,,,
"1/0364867167.61749",2014-11-23T23:59:31.862,13830,1293.00,52.27,51.99,"01:20:54",166.58,-1.020,0.930,137.61,9.60e+01,2,,1.14e+02,4.86e+00,1,7.35e+00
"1/0364867175.31799",2014-11-23T23:59:39.405,13830,1283.00,52.58,52.31,"01:23:19",166.57,-1.010,0.930,137.43,1.08e+02,2,,1.45e+02,,,
"1/0364867183.01849",2014-11-23T23:59:46.948,13830,1273.00,52.90,52.62,"01:28:01",166.55,-1.010,0.930,137.23,1.11e+02,2,,1.53e+02,,,
"1/0364867190.37435",2014-11-23T23:59:54.491,13830,1263.00,53.21,52.94,"01:32:43",166.53,-1.000,0.930,137.04,1.39e+02,2,,2.40e+02,,,
"1/0364867198.07485",2014-11-24T00:00:02.034,13830,1253.00,53.53,53.26,"01:35:08",166.52,-1.000,0.930,136.84,1.38e+02,2,,2.36e+02,,,
"1/0364867205.43137",2014-11-24T00:00:09.578,13830,1243.00,53.85,53.58,"01:39:51",166.50,-0.990,0.930,136.65,1.38e+02,2,,2.36e+02,,,
"1/0364867213.13187",2014-11-24T00:00:17.121,13830,1233.00,54.17,53.90,"01:44:33",166.48,-0.990,0.930,136.45,1.33e+02,2,,2.19e+02,,,
"1/0364867220.48773",2014-11-24T00:00:24.664,13830,1223.00,54.49,54.22,"01:49:15",166.46,-0.980,0.930,136.24,1.33e+02,2,,2.19e+02,,,
"1/0364867228.18823",2014-11-24T00:00:32.207,13830,1213.00,54.82,54.55,"01:53:58",166.44,-0.980,0.940,136.04,1.34e+02,2,,2.23e+02,,,
"1/0364867235.54475",2014-11-24T00:00:39.751,13830,1203.00,55.14,54.87,"01:58:40",166.42,-0.970,0.940,135.84,1.37e+02,2,,2.33e+02,,,
"1/0364867243.24525",2014-11-24T00:00:47.294,13830,1193.00,55.47,55.20,"02:05:40",166.39,-0.970,0.940,135.63,1.45e+02,2,,2.61e+02,,,
"1/0364867250.60111",2014-11-24T00:00:54.837,13830,1183.00,55.79,55.53,"02:10:22",166.37,-0.960,0.940,135.42,1.39e+02,2,,2.40e+02,,,
"1/0364867258.30161",2014-11-24T00:01:02.380,13830,1173.00,56.12,55.85,"02:17:22",166.34,-0.950,0.940,135.21,1.33e+02,2,,2.19e+02,,,
"1/0364867266.00211",2014-11-24T00:01:09.923,13830,1164.00,56.45,56.19,"02:22:04",166.32,-0.950,0.940,134.99,1.35e+02,2,,2.26e+02,,,
"1/0364867273.35862",2014-11-24T00:01:17.467,13830,1154.00,56.79,56.52,"02:29:04",166.29,-0.940,0.950,134.78,1.37e+02,2,,2.33e+02,,,
"1/0364867281.05912",2014-11-24T00:01:25.010,13830,1144.00,57.12,56.85,"02:36:04",166.26,-0.940,0.950,134.56,1.47e+02,2,,2.68e+02,,,
"1/0364867288.41498",2014-11-24T00:01:32.553,13830,1134.00,57.45,57.19,"02:43:04",166.23,-0.930,0.950,134.34,1.49e+02,2,,2.75e+02,,,
"1/0364867296.11548",2014-11-24T00:01:40.096,13830,1125.00,57.79,57.52,"02:50:04",166.20,-0.930,0.950,134.12,1.50e+02,2,,2.79e+02,,,
"1/0364867303.47134",2014-11-24T00:01:47.639,13830,1115.00,58.13,57.86,"02:59:21",166.16,-0.920,0.950,133.89,1.51e+02,2,,2.83e+02,,,
"1/0364867311.17250",2014-11-24T00:01:55.183,13830,1106.00,58.46,58.20,"03:06:21",166.13,-0.910,0.950,133.66,1.53e+02,2,,2.90e+02,,,
"1/0364867318.52836",2014-11-24T00:02:02.726,13830,1096.00,58.80,58.54,"03:15:39",166.09,-0.910,0.950,133.44,1.56e+02,2,,3.02e+02,,,
"1/0364867326.22886",2014-11-24T00:02:10.269,13830,1087.00,59.14,58.88,"03:24:56",166.05,-0.900,0.960,133.21,1.59e+02,2,,3.14e+02,,,
"1/0364867333.58472",2014-11-24T00:02:17.812,13830,1077.00,59.49,59.23,"03:34:13",166.01,-0.900,0.960,132.97,1.65e+02,2,,3.38e+02,,,
"1/0364867341.28522",2014-11-24T00:02:25.355,13830,1068.00,59.83,59.57,"03:43:31",165.97,-0.890,0.960,132.74,1.65e+02,2,,3.38e+02,,,
"1/0364867348.64173",2014-11-24T00:02:32.899,13830,1058.00,60.18,59.92,"03:52:48",165.93,-0.890,0.960,132.50,1.65e+02,2,,3.38e+02,,,
"1/0364867356.34224",2014-11-24T00:02:40.442,13830,1049.00,60.52,60.27,"04:04:23",165.88,-0.880,0.960,132.27,1.67e+02,2,,3.46e+02,,,
"1/0364867364.04274",2014-11-24T00:02:47.985,13830,1040.00,60.87,60.62,"04:15:58",165.83,-0.870,0.960,132.03,1.66e+02,2,,3.42e+02,,,
"1/0364867371.39860",2014-11-24T00:02:55.528,13830,1030.00,61.22,60.97,"04:25:15",165.79,-0.870,0.970,131.78,1.68e+02,2,,3.50e+02,,,
"1/0364867379.09910",2014-11-24T00:03:03.071,13830,1021.00,61.57,61.32,"04:39:08",165.73,-0.860,0.970,131.54,1.66e+02,2,,3.42e+02,,,
"1/0364867386.45561",2014-11-24T00:03:10.615,13830,1012.00,61.92,61.67,"04:50:42",165.68,-0.860,0.970,131.29,1.64e+02,2,,3.34e+02,,,
"1/0364867394.15611",2014-11-24T00:03:18.158,13830,1003.00,62.28,62.03,"05:04:35",165.62,-0.850,0.970,131.04,1.60e+02,2,,3.17e+02,,,
"1/0364867401.51197",2014-11-24T00:03:25.701,13830,994.00,62.63,62.39,"05:16:10",165.57,-0.840,0.970,130.79,1.64e+02,2,,3.34e+02,,,
"1/0364867409.21247",2014-11-24T00:03:33.244,13830,985.00,62.99,62.74,"05:32:20",165.50,-0.840,0.970,130.54,1.63e+02,2,,3.29e+02,,,
"1/0364867416.56833",2014-11-24T00:03:40.787,13830,976.00,63.35,63.10,"05:46:12",165.44,-0.830,0.980,130.29,1.64e+02,2,,3.34e+02,,,
"1/0364867424.26949",2014-11-24T00:03:48.331,13830,967.00,63.71,63.46,"06:02:22",165.37,-0.830,0.980,130.03,1.59e+02,2,,3.14e+02,,,
"1/0364867431.62535",2014-11-24T00:03:55.874,13830,958.00,64.07,63.83,"06:18:32",165.30,-0.820,0.980,129.77,1.60e+02,2,,3.17e+02,,,
"1/0364867439.32585",2014-11-24T00:04:03.417,13830,949.00,64.43,64.19,"06:34:42",165.23,-0.810,0.980,129.51,1.54e+02,2,,2.94e+02,,,
"1/0364867447.02635",2014-11-24T00:04:10.960,13830,940.00,64.79,64.56,"06:50:52",165.16,-0.810,0.980,129.25,1.60e+02,2,,3.17e+02,,,
"1/0364867454.38221",2014-11-24T00:04:18.503,13830,932.00,65.16,64.92,"07:09:19",165.08,-0.800,0.980,128.99,1.67e+02,2,,3.46e+02,,,
"1/0364867462.08336",2014-11-24T00:04:26.047,13830,923.00,65.52,65.29,"07:27:47",165.00,-0.790,0.990,128.72,1.55e+02,2,,2.98e+02,,,
"1/0364867469.43923",2014-11-24T00:04:33.590,13830,914.00,65.89,65.66,"07:48:31",164.91,-0.790,0.990,128.45,1.57e+02,2,,3.06e+02,,,
"1/0364867477.13973",2014-11-24T00:04:41.133,13830,906.00,66.26,66.03,"08:09:16",164.82,-0.780,0.990,128.18,1.58e+02,2,,3.10e+02,,,
"1/0364867484.49559",2014-11-24T00:04:48.676,13830,897.00,66.63,66.40,"08:32:19",164.72,-0.780,0.990,127.91,1.53e+02,2,,2.90e+02,,,
"1/0364867492.19609",2014-11-24T00:04:56.219,13830,889.00,67.00,66.78,"08:53:04",164.63,-0.770,0.990,127.64,1.55e+02,2,,2.98e+02,,,
"1/0364867499.55260",2014-11-24T00:05:03.763,13830,880.00,67.37,67.15,"09:18:24",164.52,-0.760,0.990,127.36,1.22e+02,2,,1.85e+02,,,
"1/0364867507.25310",2014-11-24T00:05:11.306,13830,872.00,67.75,67.53,"09:41:26",164.42,-0.760,1.000,127.08,1.03e+02,2,,1.32e+02,,,
"1/0364867514.60896",2014-11-24T00:05:18.849,13830,864.00,68.12,67.91,"10:09:04",164.30,-0.750,1.000,126.80,9.40e+01,2,,1.10e+02,,,
"1/0364867522.30946",2014-11-24T00:05:26.392,13830,855.00,68.50,68.28,"10:34:24",164.19,-0.740,1.000,126.52,9.30e+01,2,,1.07e+02,,,
"1/0364867530.00996",2014-11-24T00:05:33.935,13830,847.00,68.88,68.67,"11:04:19",164.06,-0.740,1.000,126.24,9.20e+01,2,,1.05e+02,4.53e+00,1,7.88e+00
"1/0364867537.36648",2014-11-24T00:05:41.479,13830,839.00,69.26,69.05,"11:34:13",163.93,-0.730,1.000,125.95,1.00e+02,2,,1.24e+02,,,
"1/0364867545.06698",2014-11-24T00:05:49.022,13830,831.00,69.64,69.43,"12:04:08",163.80,-0.720,1.000,125.66,1.00e+02,2,,1.24e+02,4.78e+00,1,7.47e+00
"1/0364867552.42284",2014-11-24T00:05:56.565,13830,823.00,70.02,69.82,"12:38:38",163.65,-0.720,1.010,125.37,9.50e+01,2,,1.12e+02,,,
"1/0364867560.12334",2014-11-24T00:06:04.108,13830,815.00,70.40,70.20,"13:13:08",163.50,-0.710,1.010,125.08,9.40e+01,2,,1.10e+02,,,
"1/0364867567.47920",2014-11-24T00:06:11.651,13830,807.00,70.79,70.59,"13:47:38",163.35,-0.700,1.010,124.79,1.01e+02,2,,1.26e+02,,,
"1/0364867575.18035",2014-11-24T00:06:19.195,13830,799.00,71.17,70.98,"14:26:43",163.18,-0.700,1.010,124.49,9.30e+01,2,,1.07e+02,,,
"1/0364867582.53622",2014-11-24T00:06:26.738,13830,791.00,71.56,71.37,"15:05:48",163.01,-0.690,1.010,124.20,9.40e+01,2,,1.10e+02,4.48e+00,1,7.97e+00
"1/0364867590.23672",2014-11-24T00:06:34.281,13830,783.00,71.95,71.76,"15:49:28",162.82,-0.690,1.010,123.90,8.90e+01,2,,9.82e+01,4.58e+00,1,7.80e+00
"1/0364867597.59258",2014-11-24T00:06:41.824,13830,775.00,72.34,72.15,"16:33:08",162.63,-0.680,1.020,123.60,9.10e+01,2,,1.03e+02,,,
"1/0364867605.29308",2014-11-24T00:06:49.367,13830,768.00,72.73,72.54,"17:21:24",162.42,-0.670,1.020,123.29,9.40e+01,2,,1.10e+02,,,
"1/0364867612.64959",2014-11-24T00:06:56.911,13830,760.00,73.12,72.94,"18:09:39",162.21,-0.670,1.020,122.99,9.80e+01,2,,1.19e+02,,,
"1/0364867620.35009",2014-11-24T00:07:04.454,13830,753.00,73.51,73.33,"19:02:29",161.98,-0.660,1.020,122.68,1.00e+02,2,,1.24e+02,,,
"1/0364867628.05059",2014-11-24T00:07:11.997,13830,745.00,73.90,73.73,"19:57:36",161.74,-0.650,1.020,122.38,1.04e+02,2,,1.34e+02,,,
"1/0364867635.40645",2014-11-24T00:07:19.540,13830,738.00,74.30,74.13,"20:57:19",161.48,-0.640,1.020,122.07,1.02e+02,2,,1.29e+02,,,
"1/0364867643.10695",2014-11-24T00:07:27.083,13830,730.00,74.69,74.53,"21:59:19",161.21,-0.640,1.030,121.75,1.04e+02,2,,1.34e+02,,,
"1/0364867650.46347",2014-11-24T00:07:34.627,13830,723.00,75.09,74.93,"23:03:37",160.93,-0.630,1.030,121.44,1.09e+02,2,,1.47e+02,,,
"1/0364867658.16397",2014-11-24T00:07:42.170,13830,716.00,75.49,75.33,"00:14:47",160.62,-0.620,1.030,121.13,1.04e+02,2,,1.34e+02,,,
"1/0364867665.51983",2014-11-24T00:07:49.713,13830,709.00,75.89,75.73,"01:30:32",160.29,-0.620,1.030,120.81,1.02e+02,2,,1.29e+02,,,
"1/0364867673.22033",2014-11-24T00:07:57.256,13830,701.00,76.28,76.13,"02:48:35",159.95,-0.610,1.030,120.49,9.60e+01,2,,1.14e+02,,,
"1/0364867680.57619",2014-11-24T00:08:04.799,13830,694.00,76.68,76.54,"04:13:30",159.58,-0.600,1.030,120.17,9.70e+01,2,,1.17e+02,,,
"1/0364867688.27734",2014-11-24T00:08:12.343,13830,687.00,77.08,76.94,"05:45:17",159.18,-0.600,1.040,119.85,1.02e+02,2,,1.29e+02,,,
"1/0364867695.63321",2014-11-24T00:08:19.886,13830,680.00,77.49,77.35,"07:21:40",158.76,-0.590,1.040,119.52,1.09e+02,2,,1.47e+02,,,
"1/0364867703.33371",2014-11-24T00:08:27.429,13830,674.00,77.89,77.75,"09:07:13",158.30,-0.580,1.040,119.20,1.15e+02,2,,1.64e+02,,,
"1/0364867711.03421",2014-11-24T00:08:34.972,13830,667.00,78.29,78.16,"10:59:38",157.81,-0.580,1.040,118.87,1.21e+02,2,,1.82e+02,,,
"1/0364867718.39007",2014-11-24T00:08:42.515,13830,660.00,78.69,78.56,"13:01:14",157.28,-0.570,1.040,118.54,1.39e+02,2,,2.40e+02,,,
"1/0364867726.09122",2014-11-24T00:08:50.059,13830,653.00,79.09,78.97,"15:11:59",156.71,-0.560,1.040,118.21,1.45e+02,2,,2.61e+02,,,
"1/0364867733.44708",2014-11-24T00:08:57.602,13830,647.00,79.50,79.38,"17:34:12",156.09,-0.550,1.050,117.88,1.37e+02,2,,2.33e+02,,,
"1/0364867741.14758",2014-11-24T00:09:05.145,13830,640.00,79.90,79.78,"20:10:10",155.41,-0.550,1.050,117.54,1.32e+02,2,,2.16e+02,,,
"1/0364867748.50344",2014-11-24T00:09:12.688,13830,634.00,80.30,80.19,"22:57:36",154.68,-0.540,1.050,117.21,1.38e+02,2,,2.36e+02,,,
"1/0364867756.20460",2014-11-24T00:09:20.232,13830,628.00,80.70,80.60,"02:01:04",153.88,-0.530,1.050,116.87,1.32e+02,2,,2.16e+02,,,
"1/0364867763.56046",2014-11-24T00:09:27.775,13830,621.00,81.10,81.00,"05:22:52",153.00,-0.530,1.050,116.53,1.38e+02,2,,2.36e+02,,,
"1/0364867771.26096",2014-11-24T00:09:35.318,13830,615.00,81.50,81.40,"09:05:18",152.03,-0.520,1.050,116.19,1.49e+02,2,,2.75e+02,,,
"1/0364867778.61682",2014-11-24T00:09:42.861,13830,609.00,81.90,81.81,"13:08:21",150.97,-0.510,1.050,115.85,1.54e+02,2,,2.94e+02,,,
"1/0364867786.31732",2014-11-24T00:09:50.404,13830,603.00,82.30,82.21,"17:41:12",149.78,-0.500,1.060,115.50,1.58e+02,2,,3.10e+02,,,
"1/0364867794.01847",2014-11-24T00:09:57.948,13830,597.00,82.69,82.60,"22:41:33",148.47,-0.500,1.060,115.16,1.56e+02,2,,3.02e+02,,,
"1/0364867801.37433",2014-11-24T00:10:05.491,13830,591.00,83.08,83.00,"04:20:52",146.99,-0.490,1.060,114.81,1.56e+02,2,,3.02e+02,,,
"1/0364867809.07483",2014-11-24T00:10:13.034,13830,585.00,83.47,83.39,"10:39:09",145.34,-0.480,1.060,114.46,1.45e+02,2,,2.61e+02,,,
"1/0364867816.43070",2014-11-24T00:10:20.577,13830,579.00,83.85,83.77,"17:47:50",143.47,-0.480,1.060,114.11,1.49e+02,2,,2.75e+02,,,
"1/0364867824.13120",2014-11-24T00:10:28.120,13830,573.00,84.22,84.15,"01:56:07",141.34,-0.470,1.060,113.76,1.43e+02,2,,2.54e+02,,,
"1/0364867831.48771",2014-11-24T00:10:35.664,13830,568.00,84.59,84.52,"11:10:52",138.92,-0.460,1.060,113.40,1.60e+02,2,,3.17e+02,,,
"1/0364867839.18821",2014-11-24T00:10:43.207,13830,562.00,84.94,84.88,"21:48:07",136.14,-0.450,1.070,113.05,1.59e+02,2,,3.14e+02,,,
"1/0364867846.54407",2014-11-24T00:10:50.750,13830,557.00,85.28,85.23,"10:03:55",132.93,-0.450,1.070,112.69,1.61e+02,2,,3.21e+02,,,
"1/0364867854.24457",2014-11-24T00:10:58.293,13830,551.00,85.61,85.55,"00:14:18",129.22,-0.440,1.070,112.33,1.64e+02,2,,3.34e+02,,,
"1/0364867861.60043",2014-11-24T00:11:05.836,13830,546.00,85.91,85.86,"16:37:38",124.93,-0.430,1.070,111.98,1.74e+02,2,,3.75e+02,,,
"1/0364867869.30159",2014-11-24T00:11:13.380,13830,541.00,86.19,86.15,"11:39:05",119.95,-0.420,1.070,111.61,1.73e+02,2,,3.71e+02,,,
"1/0364867877.00209",2014-11-24T00:11:20.923,13830,536.00,86.44,86.39,"09:32:25",114.22,-0.420,1.070,111.25,1.73e+02,2,,3.71e+02,,,
"1/0364867884.35795",2014-11-24T00:11:28.466,13830,531.00,86.65,86.60,"10:26:49",107.70,-0.410,1.070,110.89,1.75e+02,2,,3.80e+02,,,
"1/0364867892.05845",2014-11-24T00:11:36.009,13830,526.00,86.80,86.76,"14:17:41",100.41,-0.400,1.080,110.52,1.77e+02,2,,3.89e+02,,,
"1/0364867899.41431",2014-11-24T00:11:43.552,13830,521.00,86.90,86.86,"20:35:14",92.48,-0.390,1.080,110.16,1.77e+02,2,,3.89e+02,4.84e+00,1,7.37e+00
"1/0364867907.11546",2014-11-24T00:11:51.096,13830,516.00,86.94,86.90,"04:17:34",84.18,-0.390,1.080,109.79,1.78e+02,2,,3.93e+02,4.84e+00,1,7.37e+00
"1/0364867914.47132",2014-11-24T00:11:58.639,13830,511.00,86.91,86.87,"12:11:22",75.83,-0.380,1.080,109.42,1.69e+02,2,,3.54e+02,4.52e+00,1,7.90e+00
"1/0364867922.17182",2014-11-24T00:12:06.182,13830,506.00,86.82,86.78,"18:56:25",67.78,-0.370,1.080,109.05,1.64e+02,2,,3.34e+02,4.41e+00,1,8.11e+00
"1/0364867929.52769",2014-11-24T00:12:13.725,13830,502.00,86.67,86.63,"23:30:50",60.30,-0.360,1.080,108.68,1.67e+02,2,,3.46e+02,4.19e+00,1,8.52e+00
"1/0364867937.22819",2014-11-24T00:12:21.268,13830,497.00,86.47,86.42,"01:13:21",53.57,-0.360,1.080,108.31,1.64e+02,2,,3.34e+02,4.08e+00,1,8.75e+00
"1/0364867944.58470",2014-11-24T00:12:28.812,13830,493.00,86.22,86.17,"23:54:50",47.63,-0.350,1.080,107.93,1.58e+02,2,,3.10e+02,3.55e+00,1,1.00e+01
"1/0364867952.28520",2014-11-24T00:12:36.355,13830,488.00,85.93,85.88,"19:39:50",42.46,-0.340,1.080,107.56,1.52e+02,2,,2.87e+02,3.49e+00,1,1.02e+01
"1/0364867959.64106",2014-11-24T00:12:43.898,13830,484.00,85.62,85.56,"12:44:24",37.99,-0.330,1.090,107.18,1.47e+02,2,,2.68e+02,3.35e+00,1,1.06e+01
"1/0364867967.34156",2014-11-24T00:12:51.441,13830,480.00,85.28,85.22,"03:26:52",34.14,-0.330,1.090,106.80,1.55e+02,2,,2.98e+02,3.39e+00,1,1.05e+01
"1/0364867975.04206",2014-11-24T00:12:58.984,13830,476.00,84.92,84.86,"16:10:11",30.81,-0.320,1.090,106.43,1.57e+02,2,,3.06e+02,3.30e+00,1,1.08e+01
"1/0364867982.39858",2014-11-24T00:13:06.528,13830,472.00,84.55,84.48,"03:12:38",27.92,-0.310,1.090,106.05,1.68e+02,2,,3.50e+02,3.03e+00,2,1.18e+01
"1/0364867990.09908",2014-11-24T00:13:14.071,13830,468.00,84.16,84.09,"12:48:01",25.41,-0.300,1.090,105.67,1.83e+02,2,,4.15e+02,2.90e+00,1,1.23e+01
"1/0364867997.45494",2014-11-24T00:13:21.614,13830,464.00,83.77,83.69,"21:12:20",23.21,-0.300,1.090,105.28,1.89e+02,2,,4.43e+02,2.72e+00,1,1.31e+01
"1/0364868005.15544",2014-11-24T00:13:29.157,13830,460.00,83.36,83.28,"04:34:47",21.28,-0.290,1.090,104.90,2.12e+02,2,,5.57e+02,2.92e+00,1,1.22e+01
"1/0364868012.51130",2014-11-24T00:13:36.700,13830,457.00,82.95,82.86,"11:06:48",19.57,-0.280,1.090,104.52,2.14e+02,2,,5.68e+02,2.73e+00,2,1.31e+01
"1/0364868020.21245",2014-11-24T00:13:44.244,13830,453.00,82.53,82.44,"16:55:17",18.05,-0.270,1.090,104.13,2.36e+02,2,,6.91e+02,2.49e+00,1,1.43e+01
"1/0364868027.56831",2014-11-24T00:13:51.787,13830,450.00,82.10,82.01,"22:07:06",16.69,-0.270,1.090,103.74,2.73e+02,2,,9.24e+02,2.33e+00,2,1.53e+01
"1/0364868035.26881",2014-11-24T00:13:59.330,13830,446.00,81.67,81.57,"02:44:32",15.48,-0.260,1.090,103.36,2.66e+02,2,,8.77e+02,2.18e+00,2,1.64e+01
"1/0364868042.62468",2014-11-24T00:14:06.873,13830,443.00,81.24,81.13,"06:56:45",14.38,-0.250,1.100,102.97,2.63e+02,2,,8.58e+02,2.10e+00,2,1.70e+01
"1/0364868050.32518",2014-11-24T00:14:14.416,13830,440.00,80.80,80.69,"10:43:46",13.39,-0.240,1.100,102.58,2.63e+02,2,,8.58e+02,2.06e+00,2,1.73e+01
"1/0364868058.02633",2014-11-24T00:14:21.960,13830,436.00,80.35,80.24,"14:10:09",12.49,-0.230,1.100,102.19,2.72e+02,2,,9.17e+02,2.10e+00,2,1.70e+01
"1/0364868065.38219",2014-11-24T00:14:29.503,13830,433.00,79.91,79.79,"17:18:12",11.67,-0.230,1.100,101.80,2.74e+02,2,,9.31e+02,2.06e+00,2,1.73e+01
"1/0364868073.08269",2014-11-24T00:14:37.046,13830,430.00,79.46,79.34,"20:10:13",10.92,-0.220,1.100,101.41,2.84e+02,2,,1.00e+03,2.06e+00,2,1.73e+01
"1/0364868080.43855",2014-11-24T00:14:44.589,13830,428.00,79.01,78.88,"22:48:29",10.23,-0.210,1.100,101.01,2.89e+02,2,,1.04e+03,2.01e+00,2,1.78e+01
"1/0364868088.13905",2014-11-24T00:14:52.132,13830,425.00,78.56,78.42,"01:15:17",9.59,-0.200,1.100,100.62,2.86e+02,2,,1.01e+03,1.97e+00,2,1.81e+01
"1/0364868095.49557",2014-11-24T00:14:59.676,13830,422.00,78.10,77.96,"03:28:19",9.01,-0.200,1.100,100.23,2.79e+02,2,,9.65e+02,1.93e+00,2,1.85e+01
"1/0364868103.19607",2014-11-24T00:15:07.219,13830,420.00,77.65,77.50,"05:32:12",8.47,-0.190,1.100,99.83,2.81e+02,2,,9.79e+02,1.88e+00,2,1.90e+01
"1/0364868110.55193",2014-11-24T00:15:14.762,13830,417.00,77.19,77.04,"07:26:55",7.97,-0.180,1.100,99.44,2.85e+02,2,,1.01e+03,1.85e+00,2,1.93e+01
"1/0364868118.25243",2014-11-24T00:15:22.305,13830,415.00,76.73,76.57,"09:14:45",7.50,-0.170,1.100,99.04,2.97e+02,2,,1.09e+03,1.74e+00,2,2.05e+01
"1/0364868125.60829",2014-11-24T00:15:29.848,13830,412.00,76.27,76.11,"10:53:26",7.07,-0.160,1.100,98.64,2.95e+02,2,,1.08e+03,1.70e+00,2,2.10e+01
"1/0364868133.30944",2014-11-24T00:15:37.392,13830,410.00,75.81,75.64,"12:25:13",6.67,-0.160,1.100,98.24,3.13e+02,2,,1.21e+03,1.65e+00,2,2.17e+01
"1/0364868141.00994",2014-11-24T00:15:44.935,13830,408.00,75.34,75.17,"13:52:26",6.29,-0.150,1.100,97.85,3.11e+02,2,,1.20e+03,1.66e+00,2,2.16e+01
"1/0364868148.36580",2014-11-24T00:15:52.478,13830,406.00,74.88,74.70,"15:15:04",5.93,-0.140,1.100,97.45,3.14e+02,2,,1.22e+03,1.65e+00,2,2.16e+01
"1/0364868156.06630",2014-11-24T00:16:00.021,13830,404.00,74.41,74.23,"16:30:49",5.60,-0.130,1.100,97.05,3.20e+02,2,,1.27e+03,1.61e+00,2,2.21e+01
"1/0364868163.42217",2014-11-24T00:16:07.564,13830,402.00,73.94,73.75,"17:41:59",5.29,-0.130,1.110,96.65,3.26e+02,2,,1.32e+03,1.61e+00,2,2.21e+01
"1/0364868171.12332",2014-11-24T00:16:15.108,13830,400.00,73.47,73.28,"18:48:34",5.00,-0.120,1.110,96.25,3.32e+02,2,,1.37e+03,1.61e+00,2,2.22e+01
"1/0364868178.47918",2014-11-24T00:16:22.651,13830,399.00,73.00,72.81,"19:52:52",4.72,-0.110,1.110,95.84,3.45e+02,2,,1.48e+03,1.66e+00,2,2.15e+01
"1/0364868186.17968",2014-11-24T00:16:30.194,13830,397.00,72.53,72.33,"20:52:35",4.46,-0.100,1.110,95.44,3.45e+02,2,,1.48e+03,1.68e+00,2,2.13e+01
"1/0364868193.53554",2014-11-24T00:16:37.737,13830,396.00,72.06,71.86,"21:47:42",4.22,-0.090,1.110,95.04,3.61e+02,2,,1.62e+03,1.74e+00,2,2.05e+01
"1/0364868201.23604",2014-11-24T00:16:45.280,13830,394.00,71.59,71.38,"22:42:50",3.98,-0.090,1.110,94.64,3.58e+02,2,,1.59e+03,1.77e+00,2,2.02e+01
"1/0364868208.59256",2014-11-24T00:16:52.824,13830,393.00,71.12,70.90,"23:33:22",3.76,-0.080,1.110,94.23,3.61e+02,2,,1.62e+03,1.79e+00,2,2.00e+01
"1/0364868216.29306",2014-11-24T00:17:00.367,13830,392.00,70.65,70.42,"00:19:20",3.56,-0.070,1.110,93.83,3.87e+02,2,,1.86e+03,1.88e+00,1,1.90e+01
"1/0364868223.64892",2014-11-24T00:17:07.910,13830,391.00,70.17,69.95,"01:05:17",3.36,-0.060,1.110,93.43,3.53e+02,2,,1.55e+03,1.98e+00,2,1.80e+01
"1/0364868231.34942",2014-11-24T00:17:15.453,13830,390.00,69.70,69.47,"01:48:57",3.17,-0.050,1.110,93.02,3.37e+02,2,,1.41e+03,1.86e+00,2,1.92e+01
"1/0364868239.04992",2014-11-24T00:17:22.996,13830,389.00,69.22,68.99,"02:30:20",2.99,-0.050,1.110,92.62,3.54e+02,2,,1.55e+03,1.97e+00,2,1.81e+01
"1/0364868246.40643",2014-11-24T00:17:30.540,13830,388.00,68.75,68.51,"03:07:07",2.83,-0.040,1.110,92.21,3.59e+02,2,,1.60e+03,2.01e+00,2,1.78e+01
"1/0364868254.10693",2014-11-24T00:17:38.083,13830,388.00,68.27,68.03,"03:43:55",2.67,-0.030,1.110,91.81,3.65e+02,2,,1.65e+03,2.03e+00,2,1.76e+01